This demonstration page uses our WeatherBlox Daily Observations layout. Learn more.

Left ArrowRight Arrow

40.92945, -100.16068

Hourly Observations for November 11, 2021

Temp ( °F °C ) Dew Point ( °F °C ) Humidity (%) Winds ( mph kmh ) Pressure ( in mb ) Visibility ( mi km ) Precip ( " mm )
12:15 am 00:15 Clear 33 0.6 28 -2 83 83 WNW 12 19 30.07 1018 10 16 0.00 0.00
12:35 am 00:35 Partly Cloudy 35 1.5 30 -1.2 82 82 WNW 14 22 30.07 1018 10 16 0.00 0.00
12:55 am 00:55 Partly Cloudy 35 1.6 30 -1.3 81 81 WNW 12 19 30.07 1018 10 16 0.00 0.00
1:15 am 01:15 Clear 34 1.2 30 -1.3 84 84 WNW 12 19 30.08 1018 10 16 0.00 0.00
1:35 am 01:35 Clear 33 0.8 30 -1.2 87 87 WNW 10 17 30.08 1019 10 16 0.00 0.00
1:55 am 01:55 Clear 33 0.3 30 -1.3 89 89 WNW 8 13 30.08 1019 10 16 0.00 0.00
2:15 am 02:15 Clear 32 0.1 30 -1.1 92 92 W 8 13 30.09 1019 10 16 0.00 0.00
2:35 am 02:35 Clear 32 0 30 -1.1 92 92 WNW 10 17 30.11 1020 10 16 0.00 0.00
2:55 am 02:55 Partly Cloudy 32 -0.1 30 -1.3 92 92 WNW 9 15 30.11 1020 10 16 0.00 0.00
3:15 am 03:15 Partly Cloudy 33 0.4 30 -0.9 91 91 WNW 12 19 30.10 1019 10 16 0.00 0.00
3:35 am 03:35 Partly Cloudy 33 0.5 30 -1 90 90 WNW 12 19 30.11 1020 10 16 0.00 0.00
3:55 am 03:55 Clear 32 0.2 30 -1.3 90 90 W 9 15 30.11 1019 10 16 0.00 0.00
4:15 am 04:15 Clear 33 0.8 29 -1.5 85 85 WNW 12 19 30.11 1020 10 16 0.00 0.00
4:35 am 04:35 Clear 32 0.1 28 -2 86 86 WNW 10 17 30.12 1020 10 16 0.00 0.00
4:55 am 04:55 Clear 32 0 28 -2.2 85 85 WNW 9 15 30.12 1020 10 16 0.00 0.00
5:15 am 05:15 Clear 32 0.1 28 -2.3 84 84 WNW 12 19 30.13 1020 10 16 0.00 0.00
5:35 am 05:35 Clear 32 0 27 -2.6 83 83 WNW 9 15 30.12 1020 10 16 0.00 0.00
5:55 am 05:55 Clear 31 -0.5 27 -3 83 83 WNW 10 17 30.12 1020 10 16 0.00 0.00
6:15 am 06:15 Clear 32 0.1 27 -3 80 80 WNW 13 20 30.12 1020 10 16 0.00 0.00
6:35 am 06:35 Clear 34 1.1 27 -3 74 74 WNW 15 24 30.12 1020 10 16 0.00 0.00
6:55 am 06:55 Clear 33 0.8 26 -3.2 75 75 WNW 12 19 30.12 1020 10 16 0.00 0.00
7:15 am 07:15 Clear 33 0.4 26 -3.5 75 75 WNW 12 19 30.12 1020 10 16 0.00 0.00
7:35 am 07:35 Sunny 33 0.5 26 -3.6 74 74 WNW 13 20 30.13 1020 10 16 0.00 0.00
7:55 am 07:55 Sunny 33 0.5 26 -3.5 75 75 NW 10 17 30.13 1020 10 16 0.00 0.00
8:15 am 08:15 Sunny 33 0.3 27 -2.9 79 79 WNW 8 13 30.13 1020 10 16 0.00 0.00
8:35 am 08:35 Sunny 35 1.4 27 -2.7 74 74 WNW 10 17 30.12 1020 10 16 0.00 0.00
8:55 am 08:55 Sunny 38 3.1 27 -2.8 66 66 WNW 16 26 30.11 1020 10 16 0.00 0.00
9:15 am 09:15 Sunny 40 4.6 27 -3 58 58 WNW 21 33 30.10 1019 10 16 0.00 0.00
9:35 am 09:35 Sunny 41 5.2 26 -3.2 55 55 WNW 23 37 30.10 1019 10 16 0.00 0.00
9:55 am 09:55 Sunny 43 5.9 26 -3.5 51 51 WNW 24 39 30.08 1019 10 16 0.00 0.00
10:15 am 10:15 Sunny 44 6.4 25 -4.1 47 47 NW 25 41 30.07 1018 10 16 0.00 0.00
10:35 am 10:35 Sunny 45 7 23 -4.8 43 43 NW 24 39 30.07 1018 10 16 0.00 0.00
10:55 am 10:55 Sunny 46 7.7 23 -5 41 41 WNW 25 41 30.06 1018 10 16 0.00 0.00
11:15 am 11:15 Sunny 47 8.2 22 -5.7 37 37 WNW 22 35 30.05 1018 10 16 0.00 0.00
11:35 am 11:35 Sunny 48 8.8 21 -5.9 35 35 NW 25 41 30.04 1017 10 16 0.00 0.00
11:55 am 11:55 Sunny 48 9.1 21 -6.1 34 34 NW 26 43 30.03 1017 10 16 0.00 0.00
12:15 pm 12:15 Sunny 49 9.5 21 -6.1 33 33 WNW 25 41 30.01 1016 10 16 0.00 0.00
12:35 pm 12:35 Partly Cloudy 50 9.9 19 -7.2 30 30 WNW 25 41 29.99 1016 10 16 0.00 0.00
12:55 pm 12:55 Partly Cloudy 50 9.8 18 -7.7 29 29 NW 25 41 29.98 1015 10 16 0.00 0.00
1:15 pm 13:15 Partly Cloudy 50 9.9 15 -9.6 24 24 WNW 24 39 29.98 1015 10 16 0.00 0.00
1:35 pm 13:35 Partly Cloudy 50 10.1 15 -9.7 24 24 WNW 29 46 29.97 1015 10 16 0.00 0.00
1:55 pm 13:55 Partly Cloudy 50 10.1 14 -10 23 23 WNW 31 50 29.96 1015 10 16 0.00 0.00
2:15 pm 14:15 Partly Cloudy 50 10 15 -9.7 24 24 WNW 24 39 29.95 1014 10 16 0.00 0.00
2:35 pm 14:35 Sunny 51 10.4 15 -9.7 23 23 WNW 26 43 29.94 1014 10 16 0.00 0.00
2:55 pm 14:55 Sunny 51 10.3 13 -10.8 22 22 WNW 29 46 29.93 1013 10 16 0.00 0.00
3:15 pm 15:15 Sunny 50 9.9 12 -10.9 22 22 WNW 35 56 29.93 1014 10 16 0.00 0.00
3:35 pm 15:35 Sunny 49 9.4 10 -12.1 21 21 WNW 31 50 29.94 1014 10 16 0.00 0.00
3:55 pm 15:55 Sunny 51 10.5 11 -11.6 20 20 WNW 39 63 29.93 1013 10 16 0.00 0.00
4:15 pm 16:15 Sunny 47 8.6 11 -11.6 23 23 WNW 30 48 29.94 1014 10 16 0.00 0.00
4:35 pm 16:35 Sunny 47 8.2 10 -12.5 22 22 WNW 24 39 29.94 1014 10 16 0.00 0.00
4:55 pm 16:55 Sunny 46 7.8 11 -11.9 24 24 WNW 25 41 29.94 1014 10 16 0.00 0.00
5:15 pm 17:15 Sunny 46 7.9 11 -11.8 24 24 WNW 26 43 29.93 1014 10 16 0.00 0.00
5:35 pm 17:35 Clear 46 8 11 -11.6 24 24 WNW 23 37 29.93 1014 10 16 0.00 0.00
5:55 pm 17:55 Clear 46 7.9 11 -11.5 24 24 WNW 22 35 29.93 1014 10 16 0.00 0.00
6:15 pm 18:15 Clear 45 7.1 13 -10.7 27 27 WNW 17 28 29.95 1014 10 16 0.00 0.00
6:35 pm 18:35 Clear 44 6.4 14 -10.1 30 30 WNW 15 24 29.95 1014 10 16 0.00 0.00
6:55 pm 18:55 Clear 42 5.7 14 -9.9 32 32 WNW 15 24 29.96 1015 10 16 0.00 0.00
7:15 pm 19:15 Clear 42 5.5 15 -9.6 33 33 WNW 15 24 29.96 1015 10 16 0.00 0.00
7:35 pm 19:35 Clear 43 6.2 13 -10.6 29 29 WNW 20 31 29.97 1015 10 16 0.00 0.00
7:55 pm 19:55 Clear 43 6 12 -11 29 29 WNW 21 33 29.97 1015 10 16 0.00 0.00
8:15 pm 20:15 Clear 42 5.7 11 -11.4 28 28 WNW 22 35 29.98 1015 10 16 0.00 0.00
8:35 pm 20:35 Clear 42 5.5 11 -11.6 28 28 WNW 22 35 29.98 1015 10 16 0.00 0.00
8:55 pm 20:55 Clear 42 5.5 11 -11.7 28 28 WNW 23 37 29.99 1016 10 16 0.00 0.00
9:15 pm 21:15 Clear 38 3.4 13 -10.4 36 36 NW 20 31 30.03 1017 10 16 0.00 0.00
9:35 pm 21:35 Clear 37 2.7 14 -10 39 39 NW 14 22 30.04 1017 10 16 0.00 0.00
9:55 pm 21:55 Clear 36 2.1 15 -9.7 42 42 NNW 17 28 30.06 1018 10 16 0.00 0.00
10:15 pm 22:15 Clear 38 3.3 15 -9.5 39 39 NNW 14 22 30.04 1017 10 16 0.00 0.00
10:35 pm 22:35 Clear 35 1.7 15 -9.3 44 44 WNW 12 19 30.07 1018 10 16 0.00 0.00
10:55 pm 22:55 Clear 33 0.8 15 -9.2 48 48 WNW 12 19 30.09 1019 10 16 0.00 0.00
11:15 pm 23:15 Clear 33 0.5 16 -9 49 49 NW 15 24 30.08 1019 10 16 0.00 0.00
11:35 pm 23:35 Clear 34 1.1 16 -9 47 47 WNW 12 19 30.09 1019 10 16 0.00 0.00
11:55 pm 23:55 Clear 33 0.8 16 -9 48 48 NW 15 24 30.10 1019 10 16 0.00 0.00

Powered by AerisWeather